When you browse on this site, cookies collect data to enhance your experience and personalize the content and advertising you see.
Visit our Privacy Policy to learn more. By continuing to use the site, you agree to this use of cookies and data.
  • In Hungary
  • List of Countries
  • For 7 days
  • Water Temperature
  • Satellite Maps
  • Weather Map
  • News
  • Weather Widgets
  • user-avatar
    Login

    Hourly Weather Karavaevo

    Today, 19 May, Sunday

    Time Temperature Precipitation Wind Pressure Humidity
    00:00 +4°C° 0 mm 3 mps 751 mmHg 69%
    01:00 +4°C° 0.1 mm 3 mps 751 mmHg 72%
    02:00 +4°C° 0.1 mm 3 mps 751 mmHg 74%
    03:00 +4°C° 0 mm 3 mps 751 mmHg 80%
    04:00 +4°C° 0 mm 3 mps 751 mmHg 79%
    05:00 +4°C° 0 mm 4 mps 751 mmHg 78%
    06:00 +4°C° 0 mm 4 mps 751 mmHg 77%
    07:00 +5°C° 0 mm 5 mps 751 mmHg 71%
    08:00 +6°C° 0 mm 5 mps 751 mmHg 64%
    09:00 +7°C° 0 mm 6 mps 751 mmHg 59%
    10:00 +7°C° 0 mm 6 mps 751 mmHg 57%
    11:00 +7°C° 0 mm 6 mps 751 mmHg 55%
    12:00 +8°C° 0 mm 6 mps 751 mmHg 53%
    13:00 +8°C° 0 mm 6 mps 751 mmHg 54%
    14:00 +7°C° 0 mm 6 mps 752 mmHg 54%
    15:00 +7°C° 0 mm 6 mps 752 mmHg 54%
    16:00 +5°C° 0 mm 6 mps 753 mmHg 56%
    17:00 +5°C° 0 mm 6 mps 753 mmHg 58%
    18:00 +4°C° 0 mm 6 mps 753 mmHg 59%
    19:00 +5°C° 0 mm 5 mps 753 mmHg 62%
    20:00 +3°C° 0 mm 5 mps 753 mmHg 66%
    21:00 +3°C° 0 mm 4 mps 754 mmHg 69%
    22:00 +1°C° 0 mm 4 mps 754 mmHg 71%
    23:00 +1°C° 0 mm 4 mps 754 mmHg 73%

    Tomorrow, 20 May, Monday

    Time Temperature Precipitation Wind Pressure Humidity
    00:00 +1°C° 0 mm 3 mps 754 mmHg 76%
    01:00 +1°C° 0 mm 3 mps 755 mmHg 77%
    02:00 +1°C° 0 mm 3 mps 755 mmHg 79%
    03:00 0°C° 0 mm 3 mps 755 mmHg 80%
    04:00 0°C° 0 mm 4 mps 755 mmHg 78%
    05:00 +1°C° 0 mm 4 mps 755 mmHg 75%
    06:00 +2°C° 0 mm 5 mps 756 mmHg 73%
    07:00 +5°C° 0 mm 5 mps 755 mmHg 69%
    08:00 +5°C° 0 mm 6 mps 755 mmHg 66%
    09:00 +7°C° 0 mm 6 mps 755 mmHg 62%
    10:00 +8°C° 0 mm 6 mps 755 mmHg 61%
    11:00 +8°C° 0 mm 6 mps 755 mmHg 60%
    12:00 +8°C° 0 mm 6 mps 755 mmHg 59%
    13:00 +9°C° 0 mm 6 mps 755 mmHg 57%
    14:00 +9°C° 0 mm 6 mps 755 mmHg 55%
    15:00 +10°C° 0 mm 6 mps 755 mmHg 53%
    16:00 +9°C° 0 mm 5 mps 755 mmHg 55%
    17:00 +10°C° 0 mm 4 mps 755 mmHg 58%
    18:00 +10°C° 0 mm 4 mps 755 mmHg 60%
    19:00 +8°C° 0 mm 3 mps 755 mmHg 63%
    20:00 +7°C° 0 mm 3 mps 756 mmHg 65%
    21:00 +5°C° 0 mm 3 mps 756 mmHg 68%
    22:00 +5°C° 0 mm 3 mps 756 mmHg 70%
    23:00 +4°C° 0 mm 3 mps 756 mmHg 73%

    Day after tomorrow, 21 May, Tuesday

    Time Temperature Precipitation Wind Pressure Humidity
    00:00 +4°C° 0 mm 3 mps 756 mmHg 75%
    01:00 +3°C° 0 mm 3 mps 756 mmHg 76%
    02:00 +3°C° 0 mm 3 mps 757 mmHg 77%
    03:00 +3°C° 0 mm 3 mps 757 mmHg 78%
    04:00 +4°C° 0 mm 4 mps 757 mmHg 75%
    05:00 +5°C° 0 mm 4 mps 757 mmHg 72%
    06:00 +6°C° 0 mm 4 mps 757 mmHg 69%
    07:00 +8°C° 0 mm 4 mps 757 mmHg 62%
    08:00 +10°C° 0 mm 4 mps 757 mmHg 55%
    09:00 +11°C° 0 mm 4 mps 757 mmHg 48%
    10:00 +12°C° 0 mm 4 mps 757 mmHg 47%
    11:00 +13°C° 0 mm 4 mps 757 mmHg 45%
    12:00 +13°C° 0 mm 4 mps 757 mmHg 43%
    13:00 +13°C° 0 mm 4 mps 757 mmHg 44%
    14:00 +13°C° 0 mm 4 mps 757 mmHg 44%
    15:00 +14°C° 0 mm 4 mps 756 mmHg 44%
    16:00 +13°C° 0 mm 4 mps 756 mmHg 49%
    17:00 +12°C° 0 mm 4 mps 756 mmHg 54%
    18:00 +12°C° 0 mm 4 mps 756 mmHg 59%
    19:00 +11°C° 0 mm 4 mps 756 mmHg 65%
    20:00 +10°C° 0 mm 3 mps 756 mmHg 72%
    21:00 +9°C° 0 mm 3 mps 756 mmHg 78%
    22:00 +8°C° 0 mm 3 mps 756 mmHg 80%
    23:00 +8°C° 0 mm 2 mps 756 mmHg 83%

    22 May, Wednesday

    Time Temperature Precipitation Wind Pressure Humidity
    00:00 +8°C° 0 mm 1 mps 755 mmHg 85%
    01:00 +8°C° 0 mm 1 mps 755 mmHg 86%
    02:00 +8°C° 0 mm 1 mps 755 mmHg 88%
    03:00 +8°C° 0 mm 1 mps 755 mmHg 89%
    04:00 +8°C° 0 mm 1 mps 755 mmHg 87%
    05:00 +9°C° 0 mm 1 mps 755 mmHg 85%
    06:00 +8°C° 0 mm 0 mps 754 mmHg 83%
    07:00 +10°C° 0 mm 1 mps 754 mmHg 81%
    08:00 +10°C° 0 mm 1 mps 754 mmHg 79%
    09:00 +11°C° 0 mm 1 mps 754 mmHg 76%
    10:00 +11°C° 0.1 mm 1 mps 754 mmHg 76%
    11:00 +12°C° 0.1 mm 2 mps 754 mmHg 76%
    12:00 +12°C° 0.1 mm 2 mps 753 mmHg 77%
    13:00 +13°C° 0 mm 2 mps 753 mmHg 76%
    14:00 +14°C° 0 mm 2 mps 753 mmHg 75%
    15:00 +14°C° 0 mm 2 mps 752 mmHg 74%
    16:00 +14°C° 0 mm 2 mps 752 mmHg 76%
    17:00 +14°C° 0 mm 2 mps 752 mmHg 79%
    18:00 +14°C° 0 mm 2 mps 751 mmHg 81%
    19:00 +13°C° 0.6 mm 2 mps 751 mmHg 86%
    20:00 +13°C° 0.6 mm 2 mps 751 mmHg 91%
    21:00 +12°C° 0.6 mm 2 mps 751 mmHg 96%
    22:00 +12°C° 0.8 mm 2 mps 751 mmHg 96%
    23:00 +11°C° 0.8 mm 3 mps 750 mmHg 97%

    23 May, Thursday

    Time Temperature Precipitation Wind Pressure Humidity
    00:00 +11°C° 0.8 mm 3 mps 750 mmHg 97%
    01:00 +11°C° 0 mm 3 mps 749 mmHg 96%
    02:00 +11°C° 0 mm 3 mps 748 mmHg 95%
    03:00 +11°C° 0 mm 3 mps 748 mmHg 95%
    04:00 +12°C° 0 mm 5 mps 747 mmHg 93%
    05:00 +13°C° 0 mm 6 mps 747 mmHg 91%
    06:00 +14°C° 0 mm 7 mps 746 mmHg 90%
    07:00 +15°C° 0.1 mm 8 mps 746 mmHg 85%
    08:00 +16°C° 0.1 mm 8 mps 746 mmHg 81%
    09:00 +17°C° 0.1 mm 9 mps 745 mmHg 77%
    10:00 +17°C° 1.1 mm 8 mps 745 mmHg 80%
    11:00 +16°C° 1.1 mm 7 mps 745 mmHg 83%
    12:00 +16°C° 1.1 mm 7 mps 745 mmHg 86%
    13:00 +16°C° 1.2 mm 6 mps 745 mmHg 87%
    14:00 +16°C° 1.2 mm 6 mps 745 mmHg 88%
    15:00 +16°C° 1.2 mm 6 mps 745 mmHg 89%
    16:00 +16°C° 0.4 mm 5 mps 745 mmHg 88%
    17:00 +15°C° 0.4 mm 5 mps 745 mmHg 87%
    18:00 +15°C° 0.4 mm 5 mps 746 mmHg 87%
    19:00 +13°C° 0 mm 4 mps 746 mmHg 87%
    20:00 +12°C° 0 mm 4 mps 747 mmHg 87%
    21:00 +10°C° 0 mm 4 mps 748 mmHg 88%
    22:00 +8°C° 0 mm 4 mps 748 mmHg 87%
    23:00 +7°C° 0 mm 4 mps 749 mmHg 86%

    24 May, Friday

    Time Temperature Precipitation Wind Pressure Humidity
    00:00 +6°C° 0 mm 4 mps 749 mmHg 85%
    01:00 +5°C° 0 mm 4 mps 750 mmHg 85%
    02:00 +5°C° 0 mm 3 mps 750 mmHg 85%
    03:00 +4°C° 0 mm 3 mps 751 mmHg 84%
    04:00 +4°C° 0 mm 3 mps 751 mmHg 81%
    05:00 +5°C° 0 mm 3 mps 752 mmHg 78%
    06:00 +7°C° 0 mm 3 mps 752 mmHg 74%
    07:00 +8°C° 0 mm 3 mps 752 mmHg 69%
    08:00 +9°C° 0 mm 3 mps 753 mmHg 64%
    09:00 +10°C° 0 mm 2 mps 753 mmHg 58%
    10:00 +10°C° 0 mm 2 mps 753 mmHg 56%
    11:00 +12°C° 0 mm 2 mps 753 mmHg 54%
    12:00 +13°C° 0 mm 2 mps 753 mmHg 52%
    13:00 +13°C° 0 mm 2 mps 753 mmHg 51%
    14:00 +13°C° 0 mm 2 mps 753 mmHg 51%
    15:00 +14°C° 0 mm 2 mps 753 mmHg 50%
    16:00 +14°C° 0 mm 2 mps 753 mmHg 53%
    17:00 +13°C° 0 mm 2 mps 753 mmHg 57%
    18:00 +13°C° 0 mm 1 mps 753 mmHg 60%
    19:00 +12°C° 0 mm 2 mps 753 mmHg 61%
    20:00 +9°C° 0 mm 2 mps 753 mmHg 62%
    21:00 +8°C° 0 mm 2 mps 754 mmHg 63%
    22:00 +8°C° 0 mm 2 mps 754 mmHg 64%
    23:00 +7°C° 0 mm 2 mps 754 mmHg 64%
    Show more